sat.trackr.live / text

‹ back to catalog

ONEWEB-0426

NORAD 50498 · 2021-132AF

PAYLOAD ACTIVE UNKNOWN

§ Identity

Operator
Country
UK
Launch date
2021-12-27
Launch site
TYMSC
Launch vehicle
Mass (kg)
RCS (m²)

Purposes: comms

External: N2YO · Heavens-Above · Gunter

§ Orbital elements

Epoch: 2026-05-25T02:16:39.697824Z

Period
109.20 min
Inclination
87.9168°
Eccentricity
0.0002544
Mean motion
13.18687153 rev/d
Perigee alt
1,187.8 km
Apogee alt
1,191.7 km
Semi-major
7,567.9 km
B*
1.2256e-4
RAAN
340.0413°
Arg perigee
89.5338°
Mean anomaly
270.6086°
Rev number
21,854

§ Raw data

ONEWEB-04261 50498U 21132AF  26145.09490391  .00000061  00000+0  12256-3 0  99932 50498  87.9168 340.0413 0002544  89.5338 270.6086 13.18687153218545

JSON: /api/v1/satellites/50498 · /tle

For live sub-satellite position, see the globe view (requires WebGL).

§ Visibility from observer

Set your observer location to see the next 7 days of passes ≥ 10°. The values pass through the URL so the page stays shareable.

No JS? Fill the form by hand. The geolocation button needs JavaScript.